{"data":{"norad_id":48312,"epoch":"2026-09-19T23:24:03.988224Z","epoch_age_seconds":78962,"freshness":"FRESH","line1":"1 48312U 21036AN  26262.97504616 -.00000136  00000+0  73655-5 0  9997","line2":"2 48312  53.1597 264.2507 0001110  86.0013 274.1115 15.31696456297990","mean_motion":15.31696456,"eccentricity":0.000111,"inclination_deg":53.1597,"raan_deg":264.2507,"arg_perigee_deg":86.0013,"mean_anomaly_deg":274.1115,"bstar":7.3655e-6,"rev_number":29799,"period_min":94.013405486394,"perigee_km":469.99033320647,"apogee_km":471.51078624473,"semimajor_km":6848.8875597256,"source":"CELESTRAK","updated_at":"2026-09-20T09:00:38.934289Z"}}